Tracking 20621 objects as of 30-Mar-2020
HD Live streaming from Space Station
objects crossing your sky now

COSMOS 1678 DEB *

Track COSMOS 1678 DEB * now!
10-day predictions


NORAD ID: 18608
Int'l Code: 1985-077K
Perigee: 707.2 km
Apogee: 724.8 km
Inclination: 74.0 °
Period: 99.0 minutes
Semi major axis: 7086 km
RCS: 0.0077 m2 (small)
Launch date: August 29, 1985
Source: Commonwealth of Independent States (former USSR) (CIS)
Launch site: PLESETSK MISSILE AND SPACE COMPLEX (PKMTR)

Note: This is SATELLITE DEBRIS
aabbcc
Your satellite tracking list
Your tracking list is empty




NASA's NSSDC Master Catalog

Two Line Element Set (TLE):
1 18608U 85077K   20089.97658974 +.00000230 +00000-0 +59812-4 0  9998
2 18608 074.0460 076.9759 0012431 298.6481 061.3431 14.55156178748255
Source of the keplerian elements: AFSPC